FW8607 Weather Reports


Display with metric or nautical units.
time (UTC)temp
F
wind
direction
speed
MPH
gust
MPH
rain 1hr
in
rain 24hr
in
rain mn
in
humidity
%
barometer
mb
20240301080018 53 0.0 1.0 0.00 0.00 0.00 89 1020.4
20240301073019 53 248 1.0 2.0 0.00 0.00 0.00 89 1020.3
20240301070020 54 0.0 2.0 0.00 0.00 0.00 88 1020.2
20240301063019 54 0.0 2.0 0.00 0.00 0.00 88 1020.3
20240301060020 54 248 1.0 2.0 0.00 0.00 0.00 87 1020.2
20240301053039 54 0.0 2.0 0.00 0.00 0.00 86 1020.1
20240301050020 54 0.0 2.0 0.00 0.00 0.00 85 1020.2
20240301043040 55 0.0 2.0 0.00 0.00 0.00 85 1020.1
20240301040020 55 248 1.0 4.0 0.00 0.00 0.00 84 1020.1
20240301033019 55 203 3.0 7.0 0.00 0.00 0.00 83 1020.0
20240301030019 55 248 4.0 8.0 0.00 0.00 0.00 84 1019.7
20240301023019 55 248 4.0 8.0 0.00 0.00 0.00 83 1019.2
20240301020019 55 248 5.0 9.0 0.00 0.00 0.00 82 1019.2
20240301013019 57 248 6.0 11.0 0.00 0.00 0.00 77 1019.2
20240301010019 58 248 8.0 13.0 0.00 0.00 0.00 75 1019.5
20240301003019 60 248 8.0 15.0 0.00 0.00 0.00 73 1019.4
20240301000020 61 248 7.0 15.0 0.00 0.00 0.00 71 1019.4
20240229233018 61 248 6.0 12.0 0.00 0.00 0.00 69 1019.6
20240229230018 62 248 5.0 11.0 0.00 0.00 0.00 68 1019.8
20240229223019 62 248 3.0 10.0 0.00 0.00 0.00 68 1019.9
20240229220018 63 338 4.0 9.0 0.00 0.00 0.00 70 1020.2
20240229213019 60 338 6.0 16.0 0.00 0.00 0.00 75 1020.2
20240229210018 60 248 4.0 10.0 0.00 0.00 0.00 76 1020.7
20240229203018 60 270 3.0 9.0 0.00 0.00 0.00 74 1020.7
20240229200038 60 158 2.0 6.0 0.00 0.00 0.00 73 1021.2
20240229193018 60 113 2.0 6.0 0.00 0.00 0.00 73 1021.6
20240229190038 60 180 1.0 5.0 0.00 0.00 0.00 72 1021.6
20240229183018 59 158 2.0 7.0 0.00 0.00 0.00 72 1021.7
20240229180018 58 180 2.0 7.0 0.00 0.00 0.00 75 1021.6
20240229173018 57 203 1.0 5.0 0.00 0.00 0.00 78 1021.5
20240229170018 55 270 1.0 4.0 0.00 0.00 0.00 87 1021.2
20240229163018 54 270 1.0 3.0 0.00 0.00 0.00 89 1021.1
20240229160018 54 270 2.0 3.0 0.00 0.00 0.00 90 1021.0
20240229153018 54 270 1.0 3.0 0.00 0.00 0.00 91 1020.5
20240229150037 54 270 2.0 5.0 0.00 0.00 0.00 91 1020.2
20240229143019 53 248 3.0 5.0 0.00 0.00 0.00 91 1020.1
20240229140019 53 135 1.0 4.0 0.00 0.00 0.00 91 1019.5
20240229133143 54 135 1.0 3.0 0.00 0.00 0.00 92 1019.5
20240229130018 54 135 1.0 3.0 0.00 0.00 0.00 91 1019.1
20240229123017 54 135 1.0 2.0 0.00 0.00 0.00 92 1018.8
20240229120019 54 135 1.0 3.0 0.00 0.00 0.00 91 1018.7
20240229113020 54 135 2.0 6.0 0.00 0.00 0.00 91 1018.6
20240229110059 54 248 1.0 3.0 0.00 0.00 0.00 91 1018.5
20240229103019 54 248 1.0 2.0 0.00 0.00 0.00 91 1018.6
20240229100020 54 248 1.0 4.0 0.00 0.00 0.00 91 1018.8
20240229093020 54 248 2.0 6.0 0.00 0.00 0.00 91 1018.7
20240229090019 54 180 1.0 6.0 0.00 0.00 0.00 91 1018.7
20240229083019 54 90 1.0 3.0 0.00 0.00 0.00 92 1018.4